Location: Bryzozowice
(50.3667°N, 18.9667°E)
Time: 08:55:12
(UTC+00:00)

Cosmos 1626 - Pass Details

Date: 24 January 2020
Orbit: 492 x 495 km, 82.5° (Epoch: 27 February)

Event Time Altitude Azimuth Distance (km) Brightness Sun altitude
Rises 16:52:10 0° 215° (SW) 2,570 6.5 -14.1°
Reaches altitude 10° 16:54:28 10° 227° (SW) 1,693 5.8 -14.4°
Maximum altitude 16:57:43 29° 288° (WNW) 947 4.2 -14.9°
Drops below altitude 10° 17:01:01 10° 350° (N) 1,707 4.8 -15.4°
Sets 17:03:21 0° 2° (N) 2,596 5.6 -15.8°
